Regional Weather Roundup
Issued by NWS

Home | Current Version | Previous Version | Text Only | Print | Product List | Glossary On
Versions: 1 2 3 4 5 6 7 8 9 10 11 12 13 14 15 16 17 18 19 20 21 22 23 24 25 26 27 28 29 30 31 32 33 34 35 36 37 38 39 40 41 42 43 44 45 46 47 48 49 50
000
ASUS43 KLMK 280010
RWRKY
KENTUCKY REGIONAL WEATHER ROUNDUP
NATIONAL WEATHER SERVICE LOUISVILLE KY
800 PM EDT FRI MAR 27 2015

NOTE "FAIR" INDICATES FEW OR NO CLOUDS BELOW 12,000 FEET
WITH NO SIGNIFICANT WEATHER AND/OR OBSTRUCTIONS TO VISIBILITY.

KYZ001>023-026-027-061>063-070>075-280100-
WESTERN AND SOUTH CENTRAL KENTUCKY

CITY           SKY/WX    TMP DP  RH WIND       PRES   REMARKS
PADUCAH        CLOUDY    38  19  46 N14       30.14R WCI  30
HENDERSON      CLOUDY    37  18  44 N12       30.12S WCI  30
OWENSBORO      CLOUDY    37  21  52 N8G21     30.12R WCI  31
HOPKINSVILLE   CLOUDY    37  29  71 NW6       30.10R WCI  33
BOWLING GREEN  CLOUDY    39  24  55 NW9G17    30.08R WCI  33
GLASGOW        CLOUDY    37  23  56 NW6       30.05R WCI  33
$$

KYZ024-025-028>034-038-045-046-053-280100-
NORTH CENTRAL KENTUCKY

CITY           SKY/WX    TMP DP  RH WIND       PRES   REMARKS
LOUISVILLE/SDF CLOUDY    37  19  48 N10       30.07R WCI  30
LOUISVILLE/LOU CLOUDY    36  19  50 N6        30.07R WCI  31
FORT KNOX      CLOUDY    35  21  57 NW9       30.04S WCI  28
$$

KYZ035>037-039>044-047>052-055>060-089>105-280100-
NORTHEAST KENTUCKY

CITY           SKY/WX    TMP DP  RH WIND       PRES   REMARKS
LEXINGTON      CLOUDY    33  22  63 NW13G22   30.03R WCI  24
COVINGTON      CLOUDY    30  16  56 N13       30.05R WCI  20
FRANKFORT      CLOUDY    33  19  56 NW9       30.04R WCI  25
$$

KYZ054-064>069-076>088-106>120-280100-
SOUTHEAST KENTUCKY

CITY           SKY/WX    TMP DP  RH WIND       PRES   REMARKS
JACKSON        CLOUDY    35  22  58 N8G17     29.95R WCI  29
LONDON         CLOUDY    37  24  59 N13       29.98R WCI  29
SOMERSET       CLOUDY    36  27  69 N13       30.02S WCI  27
MIDDLESBORO    CLOUDY    39  29  67 NW10      29.95R WCI  32
MONTICELLO     CLOUDY    38  28  67 N8        30.04R WCI  32
$$



USA.gov is the U.S. government's official web portal to all federal, state and local government web resources and services.